Location: Torch Lake Township
(45.0753°N, 85.3586°W)
Time: 07:11:48
(UTC-04:00)

Amateur Radio Satellites - All Passes

Search period start: 25 October 2014 06:41
Search period end: 26 October 2014 06:41
Location: Torch Lake Township, 45.0753°N, 85.3586°W

Satellite Date Start Highest point End Downlink Frequencies (MHz)
Time Altitude Azimuth
JAS-2 25 Oct 06:54:17 07:01:55 56° 99° (E) 07:09:34 435.800 - 435.900 CW/SSB, 435.910 FM
Uosat F 25 Oct 06:57:56 07:02:46 46° 291° (WNW) 07:07:33 435.120 FM
AO-7 25 Oct 07:10:41 07:18:44 56° 297° (WNW) 07:26:47 29.400 - 29.500 MHz
Sapphire 25 Oct 07:11:54 07:15:31 18° 324° (NW) 07:19:09 437.095 MHz 1200 baud AX-25 AFSK
Saudisat 1A 25 Oct 07:16:41 07:17:17 10° 107° (ESE) 07:17:54 436.775 MHz
PCSat 25 Oct 07:36:05 07:38:35 13° 330° (NNW) 07:41:07 145.825 MHz
STRAND 1 25 Oct 07:53:51 07:58:57 67° 258° (WSW) 08:04:06 ?
Hamsat 25 Oct 07:57:19 08:01:27 59° 286° (WNW) 08:05:36 145.90 MHz
JAS-2 25 Oct 08:39:43 08:46:36 37° 297° (WNW) 08:53:35 435.800 - 435.900 CW/SSB, 435.910 FM
RS-15 25 Oct 08:48:51 08:59:48 65° 243° (WSW) 09:11:14 29.354 - 29.394 USB, Beacon 29.352 USB
Saudisat 1A 25 Oct 08:51:43 08:56:07 87° 125° (SE) 09:00:33 436.775 MHz
SO-67 25 Oct 08:56:46 09:00:15 84° 283° (WNW) 09:03:41 435.3500 MHz FM
MaSat-1 25 Oct 09:01:58 09:03:26 14° 49° (NE) 09:04:51 437.345 MHz
AO-7 25 Oct 09:05:28 09:09:46 15° 319° (NW) 09:14:05 29.400 - 29.500 MHz
HO-68 25 Oct 09:29:29 09:34:43 21° 90° (E) 09:39:54 435.675 MHz FM
Oscar 11 25 Oct 10:15:32 10:17:17 12° 89° (E) 10:19:02 145.825 FM, Beacon 2401.500 USB
Saudisat 1A 25 Oct 10:33:18 10:36:17 18° 325° (NW) 10:39:17 436.775 MHz
MaSat-1 25 Oct 10:36:59 10:39:05 21° 251° (WSW) 10:41:03 437.345 MHz
RS-15 25 Oct 11:04:36 11:09:53 15° 265° (W) 11:15:16 29.354 - 29.394 USB, Beacon 29.352 USB
ZACube-1 25 Oct 11:05:11 11:08:04 18° 91° (E) 11:10:54 437.345 MHz
UKube-1 25 Oct 11:08:33 11:12:46 46° 100° (E) 11:16:58 145.840 MHz, 145.915 MHz
PCSat 25 Oct 11:09:58 11:11:11 11° 25° (NNE) 11:12:23 145.825 MHz
HO-68 25 Oct 11:15:56 11:23:10 79° 289° (WNW) 11:30:20 435.675 MHz FM
FUNcube-1 25 Oct 11:48:53 11:53:03 50° 99° (E) 11:57:07 145.950 - 145.970 MHz USB
Oscar 11 25 Oct 11:49:38 11:53:56 67° 286° (WNW) 11:58:12 145.825 FM, Beacon 2401.500 USB
Sapphire 25 Oct 12:28:57 12:33:28 26° 43° (NE) 12:37:57 437.095 MHz 1200 baud AX-25 AFSK
Oscar 19 25 Oct 12:37:53 12:39:45 12° 55° (NE) 12:41:36 437.125 CW, 437.150 USB
ZACube-1 25 Oct 12:40:39 12:44:44 44° 289° (WNW) 12:48:42 437.345 MHz
JAS-1B 25 Oct 12:44:18 12:47:07 14° 54° (NE) 12:49:55 435.800 - 435.900 CW/SSB
UKube-1 25 Oct 12:45:30 12:48:39 20° 297° (WNW) 12:51:47 145.840 MHz, 145.915 MHz
Oscar 10/S400 25 Oct 12:45:50 13:00:02 19° 149° (SSE) 13:12:14 145.825 - 145.975 CW/USB, Beacon 145.810 USB
PCSat 25 Oct 12:51:13 12:56:16 37° 48° (NE) 13:01:16 145.825 MHz
SO-50 25 Oct 12:56:01 12:59:10 19° 111° (ESE) 13:02:23 436.795 FM
KITSAT 1 25 Oct 12:56:30 13:04:19 57° 115° (ESE) 13:12:10 435.175 FM
HO-68 25 Oct 13:05:11 13:09:48 19° 310° (NW) 13:14:24 435.675 MHz FM
AO-Echo 25 Oct 13:13:43 13:15:52 13° 56° (NE) 13:18:02 ?
Oscar 16 25 Oct 13:20:45 13:25:05 28° 64° (ENE) 13:29:25 437.025 USB, Beacon 2401.1428
FUNcube-1 25 Oct 13:26:18 13:29:02 17° 298° (WNW) 13:31:44 145.950 - 145.970 MHz USB
Uribyol 2 25 Oct 13:42:08 13:45:54 21° 60° (ENE) 13:49:41 436.500 FM
ITAMSAT 1 25 Oct 13:48:10 13:52:04 22° 61° (ENE) 13:55:59 435.822 SSB
ISS 25 Oct 13:57:32 14:00:49 60° 146° (SE) 14:04:07 145.800 FM
Gurwin Techsat 1B 25 Oct 14:11:56 14:15:38 20° 60° (ENE) 14:19:20 435.225 FM
Sapphire 25 Oct 14:11:56 14:17:20 64° 243° (WSW) 14:22:40 437.095 MHz 1200 baud AX-25 AFSK
Oscar 19 25 Oct 14:13:05 14:18:13 77° 74° (ENE) 14:23:23 437.125 CW, 437.150 USB
UOSAT-12 25 Oct 14:17:56 14:19:46 12° 107° (ESE) 14:21:35 437.025 FM, 437.400 FM
TMSAT-1 25 Oct 14:22:57 14:26:29 18° 59° (ENE) 14:30:01 436.925 FM
JAS-1B 25 Oct 14:31:05 14:37:00 88° 74° (ENE) 14:42:42 435.800 - 435.900 CW/SSB
AO-7 25 Oct 14:31:27 14:35:58 16° 42° (NE) 14:40:30 29.400 - 29.500 MHz
AO-27 25 Oct 14:32:32 14:37:34 51° 70° (ENE) 14:42:38 436.795 MHz FM
PCSat 25 Oct 14:34:41 14:39:42 39° 248° (WSW) 14:44:40 145.825 MHz
SO-50 25 Oct 14:34:49 14:39:16 58° 310° (NW) 14:43:53 436.795 FM
AO-Echo 25 Oct 14:48:52 14:53:47 85° 75° (ENE) 14:58:54 ?
KITSAT 1 25 Oct 14:52:25 15:00:00 43° 317° (NW) 15:07:38 435.175 FM
Oscar 16 25 Oct 14:59:24 15:04:15 41° 262° (W) 15:09:08 437.025 USB, Beacon 2401.1428
Uribyol 2 25 Oct 15:19:46 15:24:55 61° 258° (WSW) 15:30:08 436.500 FM
ITAMSAT 1 25 Oct 15:26:02 15:31:09 57° 259° (W) 15:36:19 435.822 SSB
ISS 25 Oct 15:34:35 15:37:40 34° 345° (NNW) 15:40:46 145.800 FM
Saudisat 1A 25 Oct 15:37:41 15:41:04 21° 38° (NE) 15:44:27 436.775 MHz
Gurwin Techsat 1B 25 Oct 15:49:49 15:55:05 66° 258° (WSW) 16:00:24 435.225 FM
UOSAT-12 25 Oct 15:54:31 15:59:10 89° 305° (NW) 16:03:56 437.025 FM, 437.400 FM
Oscar 19 25 Oct 15:55:26 15:58:09 14° 271° (W) 16:00:53 437.125 CW, 437.150 USB
TMSAT-1 25 Oct 16:00:33 16:05:50 71° 257° (WSW) 16:11:10 436.925 FM
AO-27 25 Oct 16:13:19 16:17:21 23° 267° (W) 16:21:26 436.795 MHz FM
SO-50 25 Oct 16:18:28 16:20:51 14° 332° (NNW) 16:23:17 436.795 FM
AO-7 25 Oct 16:19:02 16:27:05 59° 64° (ENE) 16:35:10 29.400 - 29.500 MHz
JAS-1B 25 Oct 16:26:27 16:28:33 12° 273° (W) 16:30:38 435.800 - 435.900 CW/SSB
AO-Echo 25 Oct 16:31:21 16:33:17 12° 273° (W) 16:35:14 ?
Uosat F 25 Oct 16:34:43 16:39:23 41° 68° (ENE) 16:44:06 435.120 FM
KITSAT 1 25 Oct 16:52:33 16:57:54 19° 344° (NNW) 17:03:16 435.175 FM
JAS-2 25 Oct 17:09:29 17:14:40 29° 59° (ENE) 17:20:24 435.800 - 435.900 CW/SSB, 435.910 FM
ISS 25 Oct 17:12:06 17:14:59 26° 5° (N) 17:17:52 145.800 FM
Saudisat 1A 25 Oct 17:16:40 17:21:04 66° 238° (WSW) 17:25:26 436.775 MHz
Hamsat 25 Oct 17:18:57 17:20:59 13° 62° (ENE) 17:23:01 145.90 MHz
UOSAT-12 25 Oct 17:36:42 17:40:00 19° 326° (NW) 17:43:20 437.025 FM, 437.400 FM
AO-40 25 Oct 18:09:20 23:59:25 37° 184° (S) 05:38:51 Beacon 2401.320
AO-7 25 Oct 18:12:55 18:20:15 34° 264° (W) 18:27:38 29.400 - 29.500 MHz
Uosat F 25 Oct 18:14:05 18:18:17 27° 265° (W) 18:22:32 435.120 FM
OPAL 25 Oct 18:17:17 18:21:24 25° 96° (E) 18:25:28 ?
ISS 25 Oct 18:48:50 18:52:08 57° 25° (NNE) 18:55:26 145.800 FM
KITSAT 1 25 Oct 18:51:41 18:57:01 18° 15° (NNE) 19:02:19 435.175 FM
Hamsat 25 Oct 18:52:15 18:56:25 66° 259° (W) 19:00:36 145.90 MHz
JAS-2 25 Oct 18:53:23 18:59:16 56° 261° (W) 19:05:59 435.800 - 435.900 CW/SSB, 435.910 FM
SO-67 25 Oct 19:31:07 19:34:21 39° 73° (ENE) 19:37:36 435.3500 MHz FM
SO-50 25 Oct 19:45:34 19:46:38 11° 22° (NNE) 19:47:42 436.795 FM
OPAL 25 Oct 19:55:46 20:00:26 42° 294° (WNW) 20:05:04 ?
HO-68 25 Oct 20:01:06 20:06:17 22° 53° (NE) 20:11:30 435.675 MHz FM
STRAND 1 25 Oct 20:02:38 20:07:22 36° 97° (E) 20:12:04 ?
ISS 25 Oct 20:25:52 20:28:38 24° 222° (SW) 20:31:24 145.800 FM
KITSAT 1 25 Oct 20:47:21 20:54:57 42° 43° (NE) 21:02:29 435.175 FM
SO-67 25 Oct 21:05:54 21:07:32 13° 269° (W) 21:09:11 435.3500 MHz FM
RS-15 25 Oct 21:08:40 21:14:33 16° 97° (E) 21:20:24 29.354 - 29.394 USB, Beacon 29.352 USB
Oscar 11 25 Oct 21:12:45 21:14:58 14° 61° (ENE) 21:17:11 145.825 FM, Beacon 2401.500 USB
SO-50 25 Oct 21:24:09 21:28:36 36° 45° (NE) 21:33:05 436.795 FM
STRAND 1 25 Oct 21:41:57 21:46:29 32° 295° (WNW) 21:50:59 ?
HO-68 25 Oct 21:45:58 21:53:09 87° 253° (WSW) 22:00:23 435.675 MHz FM
ZACube-1 25 Oct 22:03:24 22:06:49 21° 65° (ENE) 22:10:12 437.345 MHz
UKube-1 25 Oct 22:05:43 22:09:56 52° 71° (ENE) 22:14:11 145.840 MHz, 145.915 MHz
UOSAT-12 25 Oct 22:42:47 22:46:40 24° 39° (NE) 22:50:30 437.025 FM, 437.400 FM
KITSAT 1 25 Oct 22:42:48 22:50:39 58° 245° (WSW) 22:58:29 435.175 FM
Oscar 11 25 Oct 22:46:19 22:50:37 68° 258° (WSW) 22:54:57 145.825 FM, Beacon 2401.500 USB
FUNcube-1 25 Oct 22:46:38 22:51:06 54° 72° (ENE) 22:55:29 145.950 - 145.970 MHz USB
SO-50 25 Oct 23:04:44 23:09:12 37° 243° (WSW) 23:13:41 436.795 FM
RS-15 25 Oct 23:13:51 23:24:43 71° 119° (ESE) 23:35:34 29.354 - 29.394 USB, Beacon 29.352 USB
HO-68 25 Oct 23:37:32 23:41:50 17° 272° (W) 23:46:11 435.675 MHz FM
ZACube-1 25 Oct 23:38:32 23:42:56 45° 261° (W) 23:47:17 437.345 MHz
UKube-1 25 Oct 23:43:41 23:46:26 16° 268° (W) 23:49:12 145.840 MHz, 145.915 MHz
MaSat-1 26 Oct 00:14:13 00:18:03 40° 113° (ESE) 00:21:33 437.345 MHz
UOSAT-12 26 Oct 00:22:31 00:27:11 60° 239° (WSW) 00:31:46 437.025 FM, 437.400 FM
FUNcube-1 26 Oct 00:24:48 00:27:46 17° 269° (W) 00:30:43 145.950 - 145.970 MHz USB
KITSAT 1 26 Oct 00:43:29 00:44:18 10° 264° (W) 00:45:06 435.175 FM
RS-15 26 Oct 01:27:35 01:37:51 44° 325° (NW) 01:48:15 29.354 - 29.394 USB, Beacon 29.352 USB
Oscar 10/S400 26 Oct 01:34:07 02:31:49 22° 237° (WSW) 05:04:53 145.825 - 145.975 CW/USB, Beacon 145.810 USB
MaSat-1 26 Oct 01:50:48 01:53:45 20° 307° (NW) 01:56:29 437.345 MHz
JAS-1B 26 Oct 02:11:37 02:16:53 23° 93° (E) 02:22:48 435.800 - 435.900 CW/SSB
Oscar 19 26 Oct 02:23:22 02:27:23 23° 93° (E) 02:31:23 437.125 CW, 437.150 USB
AO-27 26 Oct 02:44:55 02:47:57 15° 89° (E) 02:50:57 436.795 MHz FM
AO-Echo 26 Oct 02:54:28 02:58:50 25° 93° (E) 03:03:11 ?
Oscar 16 26 Oct 03:08:39 03:13:44 60° 101° (E) 03:18:47 437.025 USB, Beacon 2401.1428
Sapphire 26 Oct 03:16:21 03:18:12 12° 102° (ESE) 03:20:03 437.095 MHz 1200 baud AX-25 AFSK
Uribyol 2 26 Oct 03:30:35 03:35:31 41° 98° (E) 03:40:23 436.500 FM
PCSat 26 Oct 03:36:25 03:40:16 20° 106° (ESE) 03:44:09 145.825 MHz
ITAMSAT 1 26 Oct 03:36:53 03:41:54 44° 99° (E) 03:46:51 435.822 SSB
RS-15 26 Oct 03:45:07 03:54:00 27° 359° (N) 04:03:04 29.354 - 29.394 USB, Beacon 29.352 USB
JAS-1B 26 Oct 04:01:18 04:07:53 73° 288° (WNW) 04:15:46 435.800 - 435.900 CW/SSB
Oscar 19 26 Oct 04:02:04 04:06:58 48° 290° (WNW) 04:11:52 437.125 CW, 437.150 USB
Gurwin Techsat 1B 26 Oct 04:04:04 04:09:08 43° 98° (E) 04:14:09 435.225 FM
TMSAT-1 26 Oct 04:14:31 04:19:30 40° 97° (E) 04:24:27 436.925 FM
AO-7 26 Oct 04:20:27 04:24:47 15° 86° (E) 04:29:06 29.400 - 29.500 MHz
AO-27 26 Oct 04:22:47 04:28:01 74° 287° (WNW) 04:33:13 436.795 MHz FM
AO-Echo 26 Oct 04:32:43 04:37:47 47° 291° (WNW) 04:42:51 ?
Oscar 16 26 Oct 04:48:58 04:52:39 20° 299° (WNW) 04:56:19 437.025 USB, Beacon 2401.1428
Sapphire 26 Oct 04:55:19 05:00:43 81° 120° (ESE) 05:06:10 437.095 MHz 1200 baud AX-25 AFSK
Uribyol 2 26 Oct 05:10:23 05:14:49 29° 296° (WNW) 05:19:12 436.500 FM
ITAMSAT 1 26 Oct 05:16:49 05:21:10 27° 297° (WNW) 05:25:29 435.822 SSB
PCSat 26 Oct 05:17:47 05:23:10 65° 305° (NW) 05:28:35 145.825 MHz
OPAL 26 Oct 05:33:43 05:38:46 60° 69° (ENE) 05:43:46 ?
Gurwin Techsat 1B 26 Oct 05:44:25 05:48:54 28° 296° (WNW) 05:53:23 435.225 FM
JAS-1B 26 Oct 05:54:12 05:57:41 15° 306° (NW) 06:01:27 435.800 - 435.900 CW/SSB
TMSAT-1 26 Oct 05:54:42 05:59:17 30° 295° (WNW) 06:03:50 436.925 FM
RS-15 26 Oct 06:00:06 06:10:22 41° 32° (NNE) 06:20:56 29.354 - 29.394 USB, Beacon 29.352 USB
JAS-2 26 Oct 06:00:13 06:06:29 26° 89° (E) 06:12:42 435.800 - 435.900 CW/SSB, 435.910 FM
AO-27 26 Oct 06:04:47 06:06:37 12° 306° (NW) 06:08:27 436.795 MHz FM
AO-7 26 Oct 06:10:38 06:18:59 73° 106° (ESE) 06:27:18 29.400 - 29.500 MHz
Uosat F 26 Oct 06:18:37 06:23:42 81° 104° (ESE) 06:28:45 435.120 FM
